M I D A S
Marine Information and Data Acquisition System
Tripno 1875 of the Zeeleeuw from 2010-05-05 06:13:49 to 2010-05-05 14:26:35
Back to CruiseResearch ActivitiesStationsMapUnderway DataData graphs

EquipmentUnitsComments
TimeDGPSUTC
LatitudeDGPSDM.mWGS84
LongitudeDGPSDM.mWGS84
SpeedMeteo Stationm/sRelative wind speed
DirectionMeteo StationdegRelative wind direction
TemperatureMeteo Stationdeg CelciusAir temperature
PressureMeteo StationPaAtmospheric pressure
HumidityMeteo Station%Relative humidity
Missing or incorrect values are displayed as -999
Metereological data collected by the RV Zeeleeuw from 2010-05-05 06:17:15 to 2010-05-05 15:24:49
Time Latitude Longitude Speed Direction Temperature Pressure Humidity
2010-05-05 06:18 51°13.678 2°55.872 4.3 312 8 102150 33
2010-05-05 06:19 51°13.718 2°55.761 5.4 57 8 102160 33
2010-05-05 06:20 51°13.784 2°55.669 5.6 55 8 102170 32
2010-05-05 06:21 51°13.865 2°55.619 5.7 53 8 102160 30
2010-05-05 06:22 51°13.923 2°55.631 5.6 76 8.1 102160 32
2010-05-05 06:23 51°13.935 2°55.641 4.7 40 8.1 102160 31
2010-05-05 06:24 51°13.93 2°55.638 5.6 32 8 102150 32
2010-05-05 06:25 51°13.931 2°55.608 4.4 13 8 102150 33
2010-05-05 06:26 51°13.933 2°55.591 5.8 356 8 102150 33
2010-05-05 06:27 51°13.929 2°55.592 3.7 2 8 102150 33
2010-05-05 06:28 51°13.961 2°55.57 4.1 349 8 102150 31
2010-05-05 06:29 51°13.978 2°55.566 2.3 346 8.1 102150 32
2010-05-05 06:30 51°13.972 2°55.569 2.5 349 8.1 102150 34
2010-05-05 06:31 51°13.956 2°55.581 3.5 18 8.2 102150 32
2010-05-05 06:32 51°13.931 2°55.604 4.2 6 8.1 102150 33
2010-05-05 06:33 51°13.915 2°55.614 4 5 8 102150 32
2010-05-05 06:34 51°13.903 2°55.621 4.5 13 8 102140 32
2010-05-05 06:35 51°13.897 2°55.629 5.4 7 8 102140 32
2010-05-05 06:36 51°13.922 2°55.594 5.7 352 7.9 102140 31
2010-05-05 06:37 51°13.979 2°55.544 4.8 348 8 102140 31
2010-05-05 06:38 51°14.037 2°55.498 4.5 351 8 102140 33
2010-05-05 06:39 51°14.093 2°55.452 5.1 354 8 102140 33
2010-05-05 06:40 51°14.154 2°55.406 4.5 348 8 102150 31
2010-05-05 06:41 51°14.227 2°55.332 6.4 354 8.1 102140 32
2010-05-05 06:42 51°14.33 2°55.218 8.3 349 8 102120 33
2010-05-05 06:43 51°14.478 2°55.062 9.7 349 8 102130 32
2010-05-05 06:44 51°14.664 2°54.871 10 349 8 102130 32
2010-05-05 06:45 51°14.852 2°54.677 9.8 350 8.1 102130 32
2010-05-05 06:46 51°15.042 2°54.473 8.9 347 8 102130 32
2010-05-05 06:47 51°15.221 2°54.264 9.8 351 8 102120 32
2010-05-05 06:48 51°15.402 2°54.049 8.9 351 8 102130 32
2010-05-05 06:49 51°15.585 2°53.835 8.9 349 8 102140 33
2010-05-05 06:50 51°15.762 2°53.603 10.1 349 8 102140 33
2010-05-05 06:51 51°15.946 2°53.405 9.8 283 8 102130 32
2010-05-05 06:52 51°16.146 2°53.23 10.1 282 8 102130 33
2010-05-05 06:55 51°16.767 2°52.851 10.1 343 8 102120 32
2010-05-05 06:57 51°17.283 2°52.658 11.2 344 8.1 102130 33
2010-05-05 06:58 51°17.507 2°52.569 10.6 342 8 102120 33
2010-05-05 06:59 51°17.735 2°52.535 11 338 8 102130 32
2010-05-05 07:00 51°17.967 2°52.584 10.3 337 8.1 102130 33
2010-05-05 07:01 51°18.187 2°52.713 11.5 329 8.1 102130 33
2010-05-05 07:02 51°18.4 2°52.869 11.1 337 8.1 102150 32
2010-05-05 07:03 51°18.628 2°52.94 10.4 339 8.2 102140 32
2010-05-05 07:04 51°18.86 2°52.974 10.6 340 8.2 102130 32
2010-05-05 07:05 51°19.093 2°53.007 10.6 339 8.2 102140 33
2010-05-05 07:06 51°19.326 2°53.041 10.1 339 8.1 102130 32
2010-05-05 07:07 51°19.559 2°53.078 10.7 338 8.2 102130 32
2010-05-05 07:08 51°19.79 2°53.114 10.7 337 8.2 102130 32
2010-05-05 07:09 51°20.021 2°53.146 10.3 338 8.1 102120 33
2010-05-05 07:10 51°20.25 2°53.177 10 339 8.2 102120 33
2010-05-05 07:11 51°20.483 2°53.178 10.9 337 8.2 102140 32
2010-05-05 07:12 51°20.712 2°53.172 11.5 340 8.2 102120 32
2010-05-05 07:13 51°20.939 2°53.166 12.6 338 8.1 102110 32
2010-05-05 07:14 51°21.167 2°53.16 10.1 338 8.2 102130 32
2010-05-05 07:15 51°21.396 2°53.156 10.6 338 8.2 102140 33
2010-05-05 07:16 51°21.624 2°53.155 10.7 336 8.2 102130 33
2010-05-05 07:17 51°21.854 2°53.156 11.7 336 8.2 102120 33
2010-05-05 07:18 51°22.083 2°53.158 11.2 338 8.2 102140 34
2010-05-05 07:19 51°22.311 2°53.16 12.2 338 8.2 102130 33
2010-05-05 07:20 51°22.542 2°53.162 11.2 337 8.1 102120 33
2010-05-05 07:21 51°22.773 2°53.158 11.2 336 8.1 102120 33
2010-05-05 07:22 51°23.005 2°53.154 11.1 337 8.2 102120 33
2010-05-05 07:23 51°23.235 2°53.156 10.9 337 8.2 102110 33
2010-05-05 07:24 51°23.468 2°53.153 12.1 335 8.2 102110 34
2010-05-05 07:25 51°23.701 2°53.151 10.5 340 8.2 102120 33
2010-05-05 07:26 51°23.934 2°53.151 10.7 339 8.2 102130 34
2010-05-05 07:27 51°24.168 2°53.144 11.9 336 8.2 102130 34
2010-05-05 07:28 51°24.401 2°53.14 10.5 338 8.2 102100 34
2010-05-05 07:29 51°24.633 2°53.133 11.2 337 8.1 102120 33
2010-05-05 07:30 51°24.864 2°53.123 11.3 341 8.1 102130 33
2010-05-05 07:31 51°25.094 2°53.113 10.3 339 8.1 102120 34
2010-05-05 07:32 51°25.324 2°53.1 10.7 340 8.1 102130 33
2010-05-05 07:33 51°25.553 2°53.088 10.5 334 8.1 102130 33
2010-05-05 07:34 51°25.785 2°53.078 10.8 339 8.1 102130 34
2010-05-05 07:35 51°26.016 2°53.068 10.9 340 8.1 102120 33
2010-05-05 07:36 51°26.246 2°53.082 10.9 333 8.2 102130 33
2010-05-05 07:37 51°26.475 2°53.139 10.9 335 8.2 102120 33
2010-05-05 07:38 51°26.703 2°53.192 10.5 334 8.2 102120 34
2010-05-05 07:39 51°26.933 2°53.244 11.9 335 8.3 102120 34
2010-05-05 07:40 51°27.163 2°53.295 10.6 335 8.2 102110 34
2010-05-05 07:41 51°27.396 2°53.349 10.7 338 8.2 102130 33
2010-05-05 07:42 51°27.63 2°53.404 11.1 336 8.3 102120 33
2010-05-05 07:43 51°27.865 2°53.459 10.8 337 8.3 102120 33
2010-05-05 07:44 51°28.1 2°53.514 11.6 336 8.3 102120 33
2010-05-05 07:45 51°28.334 2°53.572 10.7 338 8.3 102130 34
2010-05-05 07:46 51°28.565 2°53.621 9.6 337 8.3 102120 34
2010-05-05 07:47 51°28.794 2°53.659 10.5 338 8.3 102120 33
2010-05-05 07:48 51°29.023 2°53.699 12.8 338 8.3 102130 34
2010-05-05 07:49 51°29.252 2°53.736 11.8 338 8.3 102130 34
2010-05-05 07:50 51°29.483 2°53.759 11.9 338 8.3 102110 34
2010-05-05 07:51 51°29.715 2°53.773 14.7 340 8.3 102130 34
2010-05-05 07:52 51°29.948 2°53.785 10.7 340 8.3 102120 33
2010-05-05 07:53 51°30.18 2°53.798 10.2 336 8.3 102140 33
2010-05-05 07:54 51°30.411 2°53.813 9.1 339 8.3 102120 33
2010-05-05 07:55 51°30.642 2°53.828 10.6 337 8.3 102110 33
2010-05-05 07:56 51°30.877 2°53.843 10.6 338 8.3 102120 34
2010-05-05 07:57 51°31.113 2°53.859 10.4 339 8.3 102120 32
2010-05-05 07:58 51°31.398 2°53.878 10 339 8.3 102110 32
2010-05-05 07:59 51°31.633 2°53.892 11.3 338 8.4 102120 33
2010-05-05 08:00 51°31.869 2°53.906 9.9 337 8.4 102120 33
2010-05-05 08:01 51°32.103 2°53.921 10.5 336 8.4 102130 33
2010-05-05 08:02 51°32.339 2°53.936 10.5 335 8.4 102110 34
2010-05-05 08:03 51°32.573 2°53.957 10.8 330 8.4 102100 34
2010-05-05 08:04 51°32.778 2°54.12 10.8 325 8.4 102120 33
2010-05-05 08:05 51°32.952 2°54.368 10.9 324 8.4 102110 33
2010-05-05 08:06 51°33.129 2°54.612 10.7 326 8.4 102110 34
2010-05-05 08:07 51°33.296 2°54.868 10 324 8.4 102110 34
2010-05-05 08:08 51°33.433 2°55.167 10.3 317 8.4 102100 34
2010-05-05 08:09 51°33.436 2°55.521 9.1 22 8.5 102100 34
2010-05-05 08:10 51°33.352 2°55.775 6.6 24 8.4 102130 34
2010-05-05 08:11 51°33.285 2°55.964 6.8 247 8.5 102130 33
2010-05-05 08:12 51°33.258 2°56.098 6.5 22 8.6 102140 33
2010-05-05 08:13 51°33.281 2°56.182 7.1 321 8.7 102120 33
2010-05-05 08:14 51°33.335 2°56.208 6.9 347 8.6 102130 34
2010-05-05 08:15 51°33.368 2°56.154 6.6 22 8.5 102130 32
2010-05-05 08:16 51°33.376 2°56.102 5.1 17 8.5 102140 34
2010-05-05 08:17 51°33.384 2°56.065 5.7 21 8.4 102140 34
2010-05-05 08:18 51°33.393 2°56.041 5.2 18 8.4 102140 33
2010-05-05 08:19 51°33.402 2°56.025 5.5 13 8.5 102140 33
2010-05-05 08:20 51°33.409 2°56.016 6.2 14 8.5 102140 34
2010-05-05 08:21 51°33.413 2°56.01 5.6 16 8.4 102150 34
2010-05-05 08:22 51°33.417 2°56.005 4.7 14 8.4 102140 33
2010-05-05 08:23 51°33.42 2°56.002 4.5 19 8.4 102140 34
2010-05-05 08:24 51°33.42 2°56 4.9 21 8.3 102140 34
2010-05-05 08:25 51°33.421 2°56 4.9 21 8.4 102150 35
2010-05-05 08:26 51°33.42 2°56.001 4.5 29 8.4 102140 34
2010-05-05 08:27 51°33.42 2°56.005 5 28 8.5 102150 33
2010-05-05 08:28 51°33.419 2°56.009 4.3 29 8.4 102140 33
2010-05-05 08:29 51°33.419 2°56.011 4.8 31 8.4 102140 34
2010-05-05 08:30 51°33.418 2°56.012 4.5 29 8.4 102150 34
2010-05-05 08:31 51°33.417 2°56.012 4.4 28 8.5 102150 35
2010-05-05 08:32 51°33.416 2°56.01 4.8 29 8.4 102140 34
2010-05-05 08:33 51°33.416 2°56.008 4.5 26 8.4 102150 34
2010-05-05 08:34 51°33.414 2°56.005 5.2 25 8.4 102150 33
2010-05-05 08:35 51°33.412 2°56.003 4.8 25 8.4 102150 33
2010-05-05 08:36 51°33.41 2°56.001 5 26 8.4 102150 35
2010-05-05 08:37 51°33.408 2°55.999 4.2 26 8.4 102140 33
2010-05-05 08:38 51°33.406 2°55.997 4.5 25 8.5 102150 33
2010-05-05 08:39 51°33.404 2°55.995 4.7 28 8.7 102150 34
2010-05-05 08:40 51°33.402 2°55.993 4 25 8.5 102150 33
2010-05-05 08:41 51°33.399 2°55.991 4.2 27 8.6 102150 35
2010-05-05 08:42 51°33.396 2°55.99 5 30 8.6 102140 33
2010-05-05 08:43 51°33.393 2°55.988 4.6 28 8.5 102140 34
2010-05-05 08:44 51°33.39 2°55.985 4.9 28 8.5 102140 34
2010-05-05 08:45 51°33.384 2°55.945 4.3 43 8.5 102130 34
2010-05-05 08:46 51°33.347 2°55.918 5.1 27 8.5 102140 33
2010-05-05 08:47 51°33.315 2°55.961 5 259 8.5 102140 33
2010-05-05 08:48 51°33.301 2°56 4.5 260 8.6 102130 35
2010-05-05 08:49 51°33.292 2°56.029 5.9 256 8.8 102130 35
2010-05-05 08:50 51°33.287 2°56.051 5.2 255 8.8 102130 35
2010-05-05 08:51 51°33.284 2°56.068 4.6 253 8.9 102130 33
2010-05-05 08:52 51°33.282 2°56.08 4.9 19 9 102130 33
2010-05-05 08:53 51°33.281 2°56.088 4.7 252 9.1 102130 32
2010-05-05 08:54 51°33.279 2°56.093 5.3 20 9.2 102110 33
2010-05-05 08:55 51°33.278 2°56.095 4.8 249 9.2 102110 34
2010-05-05 08:56 51°33.276 2°56.096 4.5 20 9.3 102120 33
2010-05-05 08:57 51°33.274 2°56.095 3.6 245 9.3 102120 34
2010-05-05 08:58 51°33.271 2°56.093 4.4 247 9.3 102110 35
2010-05-05 09:00 51°33.266 2°56.09 5.1 -999 9.3 102110 33
2010-05-05 09:01 51°33.262 2°56.085 3.4 251 9.3 102110 34
2010-05-05 09:02 51°33.258 2°56.082 4.1 251 9.3 102110 35
2010-05-05 09:03 51°33.254 2°56.078 4.7 287 9.3 102110 35
2010-05-05 09:04 51°33.25 2°56.075 4.3 284 9.4 102110 33
2010-05-05 09:05 51°33.245 2°56.072 4.5 280 9.4 102120 33
2010-05-05 09:06 51°33.241 2°56.069 4.2 279 9.3 102110 34
2010-05-05 09:07 51°33.235 2°56.066 4 279 9.2 102100 33
2010-05-05 09:08 51°33.23 2°56.063 6 280 9.3 102110 35
2010-05-05 09:09 51°33.225 2°56.06 6 256 9.2 102100 35
2010-05-05 09:10 51°33.219 2°56.056 4.6 279 9.2 102100 33
2010-05-05 09:11 51°33.213 2°56.053 5.6 260 9.2 102110 33
2010-05-05 09:12 51°33.206 2°56.049 5.4 279 9.1 102100 33
2010-05-05 09:13 51°33.2 2°56.045 4.7 285 9.1 102090 35
2010-05-05 09:14 51°33.193 2°56.042 6 279 9.1 102100 34
2010-05-05 09:15 51°33.187 2°56.039 5.5 284 9.2 102100 32
2010-05-05 09:16 51°33.181 2°56.037 4.1 285 9.3 102090 34
2010-05-05 09:17 51°33.175 2°56.034 3.7 279 9.5 102090 35
2010-05-05 09:18 51°33.169 2°56.031 3.8 252 9.6 102090 35
2010-05-05 09:19 51°33.162 2°56.028 5.4 281 9.6 102090 35
2010-05-05 09:20 51°33.155 2°56.025 5.4 254 9.5 102100 33
2010-05-05 09:21 51°33.147 2°56.021 4.8 286 9.4 102090 34
2010-05-05 09:22 51°33.138 2°56.02 4.8 286 9.4 102100 33
2010-05-05 09:23 51°33.131 2°56.054 5.4 279 9.3 102100 33
2010-05-05 09:24 51°33.14 2°56.109 5.7 285 9.2 102090 34
2010-05-05 09:25 51°33.17 2°56.157 4.5 329 9.1 102100 35
2010-05-05 09:26 51°33.213 2°56.172 5.7 280 9 102090 33
2010-05-05 09:27 51°33.244 2°56.137 3.9 5 8.8 102100 33
2010-05-05 09:28 51°33.257 2°56.097 4.8 8 8.7 102100 33
2010-05-05 09:29 51°33.263 2°56.064 3.7 7 8.6 102110 34
2010-05-05 09:30 51°33.266 2°56.038 5 13 8.6 102110 35
2010-05-05 09:31 51°33.267 2°56.016 4.5 14 8.5 102110 34
2010-05-05 09:32 51°33.266 2°55.996 4.4 10 8.6 102110 35
2010-05-05 09:33 51°33.263 2°55.976 4.4 13 8.5 102110 35
2010-05-05 09:34 51°33.258 2°55.956 3.7 12 8.6 102100 33
2010-05-05 09:35 51°33.253 2°55.936 4.8 8 8.5 102100 34
2010-05-05 09:36 51°33.28 2°55.896 5.1 343 8.4 102100 34
2010-05-05 09:37 51°33.32 2°55.924 4.9 285 8.4 102100 34
2010-05-05 09:38 51°33.324 2°55.967 4.7 244 8.5 102090 35
2010-05-05 09:39 51°33.317 2°55.995 4 286 8.6 102110 34
2010-05-05 09:40 51°33.31 2°56.011 4.9 26 8.7 102100 34
2010-05-05 09:41 51°33.304 2°56.019 4.4 285 8.8 102110 33
2010-05-05 09:42 51°33.297 2°56.02 3.9 279 8.8 102100 33
2010-05-05 09:43 51°33.289 2°56.025 4.4 24 8.8 102100 33
2010-05-05 09:44 51°33.272 2°56.052 4.4 286 8.9 102110 34
2010-05-05 09:45 51°33.245 2°56.065 4 21 8.8 102110 33
2010-05-05 09:46 51°33.228 2°56.06 3.7 81 8.7 102110 35
2010-05-05 09:47 51°33.224 2°56.046 3.8 28 8.6 102110 31
2010-05-05 09:48 51°33.222 2°56.03 3.4 75 8.7 102110 33
2010-05-05 09:49 51°33.206 2°55.986 4.1 27 8.7 102100 33
2010-05-05 09:50 51°33.199 2°55.94 3.8 25 8.6 102090 35
2010-05-05 09:51 51°33.194 2°55.902 4 26 8.6 102090 35
2010-05-05 09:52 51°33.188 2°55.87 3.9 24 8.6 102090 33
2010-05-05 09:53 51°33.182 2°55.841 4.2 24 8.6 102090 33
2010-05-05 09:54 51°33.177 2°55.817 4 22 8.6 102090 34
2010-05-05 09:55 51°33.171 2°55.794 3.7 23 8.6 102090 34
2010-05-05 09:56 51°33.165 2°55.773 3.7 12 8.6 102090 36
2010-05-05 09:57 51°33.165 2°55.741 4 351 8.5 102090 36
2010-05-05 09:58 51°33.212 2°55.727 5.8 281 8.5 102090 37
2010-05-05 09:59 51°33.306 2°55.816 7.3 286 8.5 102070 35
2010-05-05 10:00 51°33.431 2°55.919 5.6 283 8.5 102080 35
2010-05-05 10:01 51°33.45 2°56.045 5.5 278 8.6 102080 35
2010-05-05 10:02 51°33.431 2°56.12 5.7 286 8.6 102090 37
2010-05-05 10:03 51°33.412 2°56.167 3.7 278 8.7 102100 36
2010-05-05 10:04 51°33.396 2°56.2 4.7 284 8.8 102090 37
2010-05-05 10:05 51°33.384 2°56.22 4.1 278 8.8 102090 37
2010-05-05 10:06 51°33.367 2°56.236 4.2 282 8.8 102080 35
2010-05-05 10:07 51°33.356 2°56.239 3.7 285 8.9 102080 35
2010-05-05 10:08 51°33.344 2°56.237 4.2 285 8.9 102080 37
2010-05-05 10:09 51°33.333 2°56.233 4 280 8.9 102080 34
2010-05-05 10:10 51°33.322 2°56.228 4.9 284 9 102080 33
2010-05-05 10:11 51°33.31 2°56.222 4.3 283 9 102070 34
2010-05-05 10:12 51°33.298 2°56.215 4.3 286 8.9 102070 36
2010-05-05 10:13 51°33.286 2°56.207 4.5 279 8.9 102070 35
2010-05-05 10:14 51°33.272 2°56.196 4.4 288 9 102070 35
2010-05-05 10:15 51°33.258 2°56.185 4.5 280 9 102070 34
2010-05-05 10:16 51°33.244 2°56.174 5.3 286 9 102060 35
2010-05-05 10:17 51°33.23 2°56.162 4.9 280 9 102070 34
2010-05-05 10:18 51°33.216 2°56.149 4.2 286 9 102060 35
2010-05-05 10:19 51°33.201 2°56.142 4.7 279 9 102070 35
2010-05-05 10:20 51°33.197 2°56.181 5.2 285 9 102040 33
2010-05-05 10:21 51°33.245 2°56.244 6.7 282 9 102060 35
2010-05-05 10:22 51°33.311 2°56.328 6 282 9 102060 35
2010-05-05 10:23 51°33.358 2°56.373 4.9 280 9 102060 34
2010-05-05 10:24 51°33.388 2°56.382 4.9 279 8.9 102060 34
2010-05-05 10:25 51°33.407 2°56.378 4.4 281 8.9 102060 34
2010-05-05 10:26 51°33.415 2°56.366 4.3 281 8.9 102060 32
2010-05-05 10:27 51°33.415 2°56.351 4.4 282 8.8 102060 35
2010-05-05 10:28 51°33.41 2°56.332 4.3 279 8.9 102060 36
2010-05-05 10:29 51°33.397 2°56.31 3.7 356 8.7 102070 34
2010-05-05 10:30 51°33.381 2°56.29 4 6 8.6 102070 34
2010-05-05 10:31 51°33.365 2°56.271 4.1 16 8.6 102070 35
2010-05-05 10:32 51°33.349 2°56.254 4 20 8.6 102070 35
2010-05-05 10:33 51°33.334 2°56.234 3.6 33 8.6 102080 37
2010-05-05 10:34 51°33.32 2°56.215 3.7 31 8.5 102070 34
2010-05-05 10:35 51°33.305 2°56.195 3.9 32 8.5 102070 35
2010-05-05 10:36 51°33.289 2°56.174 3.6 30 8.5 102060 35
2010-05-05 10:37 51°33.273 2°56.154 3.7 26 8.5 102070 37
2010-05-05 10:38 51°33.258 2°56.13 4 26 8.5 102060 35
2010-05-05 10:39 51°33.244 2°56.107 3.8 23 8.5 102050 37
2010-05-05 10:40 51°33.231 2°56.083 3.5 23 8.6 102060 35
2010-05-05 10:41 51°33.216 2°56.059 4.2 20 8.6 102050 36
2010-05-05 10:42 51°33.202 2°56.036 4.3 21 8.5 102050 35
2010-05-05 10:43 51°33.187 2°56.013 4.1 21 8.6 102050 34
2010-05-05 10:44 51°33.172 2°55.991 3.8 17 8.6 102040 36
2010-05-05 10:45 51°33.156 2°55.966 4.1 24 8.6 102040 35
2010-05-05 10:46 51°33.147 2°55.93 4.2 8 8.6 102030 35
2010-05-05 10:47 51°33.169 2°55.888 5 284 8.6 102040 34
2010-05-05 10:48 51°33.192 2°55.918 5.4 280 8.6 102020 37
2010-05-05 10:49 51°33.181 2°55.953 5 279 8.6 102030 35
2010-05-05 10:50 51°33.165 2°55.971 4 280 8.7 102040 37
2010-05-05 10:51 51°33.147 2°55.979 4.6 284 8.8 102030 35
2010-05-05 10:52 51°33.131 2°55.977 4.7 282 8.8 102030 37
2010-05-05 10:53 51°33.12 2°55.989 4.8 284 8.8 102030 37
2010-05-05 10:54 51°33.137 2°56.014 5 283 8.9 102040 37
2010-05-05 10:55 51°33.193 2°56.012 6.8 282 8.9 102030 35
2010-05-05 10:56 51°33.293 2°56.021 6.7 280 8.8 102020 35
2010-05-05 10:57 51°33.393 2°56.076 7.2 281 8.8 102030 35
2010-05-05 10:58 51°33.47 2°56.195 7.4 287 8.8 102020 35
2010-05-05 10:59 51°33.506 2°56.344 6.6 286 8.8 102010 35
2010-05-05 11:00 51°33.49 2°56.439 5.1 283 8.8 102010 36
2010-05-05 11:01 51°33.455 2°56.494 5 284 8.8 102020 37
2010-05-05 11:02 51°33.421 2°56.526 4.9 283 8.9 102020 36
2010-05-05 11:03 51°33.39 2°56.544 4.7 282 8.9 102020 35
2010-05-05 11:04 51°33.363 2°56.552 4.8 279 9 102010 35
2010-05-05 11:05 51°33.336 2°56.554 3.3 280 9 102010 36
2010-05-05 11:06 51°33.312 2°56.552 4.3 302 9.1 102010 35
2010-05-05 11:10 51°33.225 2°56.516 3.9 250 9.2 102000 37
2010-05-05 11:11 51°33.203 2°56.502 4.1 251 9.2 102010 35
2010-05-05 11:12 51°33.182 2°56.487 5 254 9.2 102000 35
2010-05-05 11:13 51°33.161 2°56.471 4.5 256 9.2 102000 35
2010-05-05 11:14 51°33.14 2°56.456 4.6 253 9.3 102010 35
2010-05-05 11:15 51°33.117 2°56.439 5.6 257 9.3 102000 37
2010-05-05 11:16 51°33.096 2°56.423 4.5 255 9.3 102010 36
2010-05-05 11:17 51°33.072 2°56.406 4.7 254 9.3 101990 37
2010-05-05 11:18 51°33.05 2°56.388 4.2 257 9.3 101980 37
2010-05-05 11:19 51°33.027 2°56.37 5.3 254 9.3 101990 35
2010-05-05 11:20 51°33.003 2°56.351 4.9 260 9.3 101990 37
2010-05-05 11:21 51°32.981 2°56.334 5 259 9.4 101980 35
2010-05-05 11:22 51°32.957 2°56.316 5.2 261 9.4 101980 35
2010-05-05 11:23 51°32.933 2°56.298 4.6 260 9.4 101980 35
2010-05-05 11:24 51°32.909 2°56.281 4.3 260 9.4 101980 35
2010-05-05 11:25 51°32.884 2°56.283 5.5 20 9.4 101980 36
2010-05-05 11:26 51°32.915 2°56.367 7 323 9.4 101960 34
2010-05-05 11:27 51°33.036 2°56.442 8.4 329 9.3 101970 36
2010-05-05 11:28 51°33.183 2°56.433 9.5 338 9.2 101970 35
2010-05-05 11:29 51°33.268 2°56.347 6.1 353 9.1 101960 36
2010-05-05 11:30 51°33.283 2°56.242 4.5 9 8.8 101970 34
2010-05-05 11:31 51°33.234 2°56.146 1.5 24 8.7 101970 36
2010-05-05 11:32 51°33.164 2°56.16 2.7 263 8.8 101980 37
2010-05-05 11:33 51°33.118 2°56.202 4.8 257 8.9 101970 36
2010-05-05 11:34 51°33.081 2°56.243 5.6 252 9 101970 37
2010-05-05 11:35 51°33.056 2°56.289 5.4 21 9.1 101960 37
2010-05-05 11:36 51°33.08 2°56.319 5.1 342 9.2 101970 37
2010-05-05 11:37 51°33.102 2°56.276 4.9 350 9.1 101950 35
2010-05-05 11:38 51°33.107 2°56.222 4.8 1 8.9 101960 35
2010-05-05 11:39 51°33.101 2°56.172 4.3 2 8.7 101960 36
2010-05-05 11:40 51°33.089 2°56.126 4.6 358 8.7 101960 37
2010-05-05 11:41 51°33.075 2°56.089 5.1 4 8.6 101960 37
2010-05-05 11:42 51°33.057 2°56.052 4 5 8.6 101960 35
2010-05-05 11:43 51°33.037 2°56.017 3.4 4 8.5 101960 36
2010-05-05 11:44 51°33.025 2°55.974 4.5 348 8.6 101960 37
2010-05-05 11:45 51°33.077 2°55.958 6.8 317 8.6 101940 36
2010-05-05 11:46 51°33.132 2°56.054 7.6 322 8.7 101940 36
2010-05-05 11:47 51°33.191 2°56.074 6.1 342 8.7 101940 37
2010-05-05 11:48 51°33.213 2°56.021 5.2 354 8.7 101940 37
2010-05-05 11:49 51°33.214 2°55.963 4.8 358 8.7 101930 36
2010-05-05 11:50 51°33.21 2°55.909 5.5 345 8.6 101930 38
2010-05-05 11:51 51°33.218 2°55.871 5.2 327 8.6 101940 37
2010-05-05 11:52 51°33.222 2°55.87 5.3 21 8.7 101930 36
2010-05-05 11:53 51°33.209 2°55.889 5.6 251 8.8 101930 36
2010-05-05 11:54 51°33.183 2°55.898 5.9 254 8.9 101940 36
2010-05-05 11:55 51°33.159 2°55.899 4.6 20 9 101940 37
2010-05-05 11:56 51°33.142 2°55.918 5.4 25 9 101930 38
2010-05-05 11:57 51°33.148 2°55.941 6 325 9 101910 35
2010-05-05 11:58 51°33.184 2°55.946 6.5 330 9 101920 35
2010-05-05 11:59 51°33.238 2°55.935 8 333 9 101920 37
2010-05-05 12:00 51°33.293 2°55.951 6.9 325 8.9 101900 35
2010-05-05 12:01 51°33.352 2°55.972 7.3 328 9 101900 37
2010-05-05 12:02 51°33.41 2°55.96 7.1 338 9 101910 35
2010-05-05 12:03 51°33.434 2°55.922 5.8 346 8.9 101910 37
2010-05-05 12:04 51°33.438 2°55.88 6.2 355 8.8 101910 37
2010-05-05 12:05 51°33.429 2°55.837 5.7 354 8.7 101900 35
2010-05-05 12:06 51°33.413 2°55.799 4.9 357 8.6 101900 37
2010-05-05 12:07 51°33.393 2°55.764 5.4 354 8.6 101910 35
2010-05-05 12:08 51°33.37 2°55.733 4 7 8.7 101910 36
2010-05-05 12:09 51°33.344 2°55.703 5.2 10 8.7 101900 38
2010-05-05 12:11 51°33.282 2°55.641 5 22 8.6 101910 38
2010-05-05 12:16 51°33.342 2°55.542 9.8 328 8.8 101890 36
2010-05-05 12:17 51°33.474 2°55.596 9.1 326 8.8 101880 36
2010-05-05 12:18 51°33.571 2°55.757 8.6 33 8.8 101860 37
2010-05-05 12:19 51°33.539 2°55.911 5.8 257 8.9 101910 36
2010-05-05 12:20 51°33.477 2°55.968 3.9 268 9 101900 38
2010-05-05 12:21 51°33.422 2°55.996 3.8 267 9 101910 36
2010-05-05 12:22 51°33.38 2°56.014 5.7 262 9 101900 35
2010-05-05 12:23 51°33.343 2°56.022 3.6 265 9 101900 35
2010-05-05 12:24 51°33.313 2°56.025 5.8 260 9 101890 37
2010-05-05 12:25 51°33.285 2°56.022 5.2 254 9.1 101890 35
2010-05-05 12:26 51°33.258 2°56.015 6.1 255 9.2 101890 35
2010-05-05 12:27 51°33.23 2°56.003 6.6 251 9.3 101890 35
2010-05-05 12:28 51°33.202 2°55.988 7.5 254 9.3 101880 37
2010-05-05 12:29 51°33.174 2°55.971 6.6 258 9.4 101880 37
2010-05-05 12:30 51°33.144 2°55.952 6.4 258 9.4 101890 37
2010-05-05 12:31 51°33.118 2°55.961 5.9 242 9.4 101890 36
2010-05-05 12:32 51°33.12 2°55.994 7 318 9.4 101870 37
2010-05-05 12:33 51°33.181 2°56.005 8.6 337 9.4 101870 36
2010-05-05 12:34 51°33.286 2°55.937 10.3 335 9.3 101870 35
2010-05-05 12:35 51°33.417 2°55.897 10.2 336 9.2 101870 36
2010-05-05 12:36 51°33.524 2°55.954 8.3 34 9.1 101870 36
2010-05-05 12:37 51°33.53 2°56.037 6.9 244 9.1 101850 36
2010-05-05 12:38 51°33.507 2°56.083 5.9 249 9.2 101870 35
2010-05-05 12:39 51°33.48 2°56.106 5.9 253 9.2 101870 36
2010-05-05 12:40 51°33.454 2°56.114 5.8 249 9.2 101880 35
2010-05-05 12:41 51°33.427 2°56.119 6.8 244 9.2 101870 37
2010-05-05 12:42 51°33.411 2°56.143 6.9 34 9.3 101870 35
2010-05-05 12:43 51°33.409 2°56.165 6.5 323 9.2 101860 36
2010-05-05 12:44 51°33.416 2°56.151 6.8 346 9.2 101870 36
2010-05-05 12:45 51°33.412 2°56.095 7 11 9 101860 35
2010-05-05 12:46 51°33.396 2°56.031 7.2 16 8.9 101860 36
2010-05-05 12:47 51°33.374 2°55.965 6.1 18 8.8 101870 35
2010-05-05 12:48 51°33.353 2°55.901 5.3 15 8.8 101860 36
2010-05-05 12:49 51°33.334 2°55.836 6 13 8.9 101870 37
2010-05-05 12:50 51°33.316 2°55.772 6 14 8.8 101860 36
2010-05-05 12:51 51°33.297 2°55.706 6 17 8.8 101870 36
2010-05-05 12:52 51°33.28 2°55.641 5.2 10 8.7 101860 37
2010-05-05 12:53 51°33.271 2°55.554 6.5 2 8.8 101870 35
2010-05-05 12:54 51°33.265 2°55.367 8.2 11 8.7 101850 36
2010-05-05 12:55 51°33.225 2°55.089 5.4 15 8.6 101840 37
2010-05-05 12:56 51°33.108 2°54.81 3.7 22 8.6 101860 35
2010-05-05 12:57 51°32.919 2°54.604 1.3 20 8.7 101860 38
2010-05-05 12:58 51°32.694 2°54.45 1.7 22 8.8 101860 37
2010-05-05 12:59 51°32.454 2°54.297 1.3 19 8.8 101860 35
2010-05-05 13:00 51°32.222 2°54.15 0.5 26 8.8 101860 36
2010-05-05 13:01 51°31.983 2°53.99 0.7 20 8.9 101860 36
2010-05-05 13:02 51°31.783 2°53.757 2.2 7 8.9 101860 35
2010-05-05 13:03 51°31.589 2°53.481 3.2 10 8.9 101850 37
2010-05-05 13:04 51°31.404 2°53.215 4.1 17 8.9 101860 35
2010-05-05 13:05 51°31.21 2°52.953 3.1 10 8.8 101860 38
2010-05-05 13:06 51°31.016 2°52.689 3.1 12 8.9 101860 38
2010-05-05 13:07 51°30.819 2°52.43 1.7 8 8.8 101860 38
2010-05-05 13:08 51°30.62 2°52.169 3.8 7 8.8 101870 36
2010-05-05 13:09 51°30.428 2°51.918 3.2 14 8.8 101870 35
2010-05-05 13:10 51°30.235 2°51.659 2.8 13 8.9 101870 38
2010-05-05 13:11 51°30.043 2°51.398 2.2 13 8.9 101870 35
2010-05-05 13:12 51°29.854 2°51.137 2.4 17 8.9 101870 37
2010-05-05 13:13 51°29.666 2°50.873 2.3 14 8.9 101860 38
2010-05-05 13:14 51°29.48 2°50.61 1.8 7 8.9 101860 36
2010-05-05 13:15 51°29.291 2°50.346 3 13 8.9 101850 36
2010-05-05 13:20 51°28.253 2°48.911 2.3 5 9 101850 34
2010-05-05 13:21 51°28.064 2°48.645 2.1 18 9 101850 36
2010-05-05 13:22 51°27.872 2°48.373 1.8 6 9 101850 36
2010-05-05 13:23 51°27.68 2°48.103 2.7 18 9 101850 36
2010-05-05 13:24 51°27.493 2°47.839 1.9 4 9 101840 38
2010-05-05 13:25 51°27.305 2°47.571 0.9 5 9 101840 35
2010-05-05 13:26 51°27.118 2°47.308 0.9 21 9.1 101840 36
2010-05-05 13:27 51°26.93 2°47.045 3 13 9 101850 38
2010-05-05 13:28 51°26.742 2°46.775 0.7 9 9.1 101840 35
2010-05-05 13:29 51°26.549 2°46.505 1.1 7 9.1 101840 36
2010-05-05 13:30 51°26.365 2°46.238 2 7 9.1 101840 36
2010-05-05 13:31 51°26.177 2°45.968 2.4 14 9.1 101830 38
2010-05-05 13:32 51°25.986 2°45.699 2.8 16 9.1 101840 36
2010-05-05 13:33 51°25.798 2°45.426 1.8 10 9 101830 38
2010-05-05 13:34 51°25.61 2°45.158 2.3 12 9 101840 36
2010-05-05 13:35 51°25.423 2°44.892 1.5 8 9 101830 37
2010-05-05 13:36 51°25.236 2°44.616 3.2 22 9 101830 37
2010-05-05 13:37 51°25.101 2°44.413 3.2 37 9 101830 36
2010-05-05 13:38 51°25.005 2°44.255 3.6 44 9 101830 35
2010-05-05 13:39 51°24.92 2°44.126 4.1 53 9 101830 37
2010-05-05 13:40 51°24.834 2°44 3.2 44 9 101830 36
2010-05-05 13:41 51°24.766 2°43.878 3.7 34 9.1 101820 36
2010-05-05 13:42 51°24.728 2°43.783 5.3 27 9.1 101820 36
2010-05-05 13:43 51°24.706 2°43.749 6.2 33 9 101810 37
2010-05-05 13:44 51°24.685 2°43.727 6 37 9 101810 36
2010-05-05 13:45 51°24.662 2°43.697 5.2 38 8.9 101810 35
2010-05-05 13:46 51°24.639 2°43.662 5.3 30 9 101810 37
2010-05-05 13:47 51°24.617 2°43.621 6.3 24 9 101800 37
2010-05-05 13:48 51°24.611 2°43.537 7.1 359 8.9 101800 35
2010-05-05 13:49 51°24.646 2°43.485 7.7 327 8.8 101800 36
2010-05-05 13:50 51°24.658 2°43.528 7.6 304 8.9 101780 36
2010-05-05 13:51 51°24.679 2°43.599 8.2 310 9 101770 37
2010-05-05 13:52 51°24.699 2°43.669 7.5 311 9 101780 36
2010-05-05 13:53 51°24.702 2°43.704 7.7 303 9 101790 35
2010-05-05 13:54 51°24.693 2°43.711 6.6 309 9.1 101800 37
2010-05-05 13:55 51°24.678 2°43.709 6 302 9.1 101780 37
2010-05-05 13:56 51°24.66 2°43.702 6.2 302 9.1 101790 36
2010-05-05 13:57 51°24.652 2°43.707 7.1 303 9.1 101800 36
2010-05-05 13:58 51°24.674 2°43.704 6.3 329 9.1 101790 36
2010-05-05 13:59 51°24.681 2°43.719 5.9 304 9.1 101780 37
2010-05-05 14:00 51°24.664 2°43.718 7 305 9.2 101790 35
2010-05-05 14:01 51°24.643 2°43.71 6.1 307 9.3 101790 35
2010-05-05 14:02 51°24.645 2°43.728 7 328 9.3 101780 35
2010-05-05 14:03 51°24.677 2°43.696 7.7 347 9.3 101780 35
2010-05-05 14:04 51°24.705 2°43.672 6.8 302 9.1 101790 35
2010-05-05 14:05 51°24.706 2°43.667 6.6 305 9.1 101770 36
2010-05-05 14:06 51°24.696 2°43.67 7.3 308 9.1 101780 37
2010-05-05 14:07 51°24.683 2°43.691 7 302 9.1 101780 36
2010-05-05 14:08 51°24.667 2°43.705 6 305 9.2 101800 34
2010-05-05 14:09 51°24.649 2°43.704 6.4 309 9.2 101790 37
2010-05-05 14:10 51°24.629 2°43.691 6.6 306 9.3 101780 35
2010-05-05 14:11 51°24.625 2°43.702 8 325 9.3 101770 35
2010-05-05 14:12 51°24.675 2°43.704 7.9 333 9.2 101780 35
2010-05-05 14:13 51°24.705 2°43.709 7.4 309 9.2 101780 35
2010-05-05 14:14 51°24.699 2°43.708 6.7 306 9.1 101780 36
2010-05-05 14:15 51°24.679 2°43.701 7.1 306 9.2 101790 37
2010-05-05 14:16 51°24.658 2°43.7 6.1 303 9.2 101790 35
2010-05-05 14:17 51°24.637 2°43.687 6.6 303 9.2 101780 36
2010-05-05 14:18 51°24.628 2°43.698 7.4 327 9.3 101790 36
2010-05-05 14:19 51°24.671 2°43.707 8.8 332 9.2 101780 35
2010-05-05 14:21 51°24.618 2°43.85 6.5 244 9.1 101790 36
2010-05-05 14:25 51°23.888 2°44.618 5.9 21 9.3 101770 36
2010-05-05 14:26 51°23.685 2°44.787 5.9 252 9.3 101770 36
2010-05-05 14:27 51°23.483 2°44.949 6 244 9.4 101760 37
2010-05-05 14:28 51°23.28 2°45.113 6.9 19 9.4 101760 36
2010-05-05 14:29 51°23.078 2°45.28 6.6 21 9.4 101770 37
2010-05-05 14:30 51°22.879 2°45.452 5.8 251 9.4 101760 35
2010-05-05 14:31 51°22.679 2°45.625 6 252 9.4 101760 35
2010-05-05 14:32 51°22.479 2°45.799 7.2 24 9.5 101760 34
2010-05-05 14:33 51°22.279 2°45.986 5 21 9.5 101760 37
2010-05-05 14:34 51°22.083 2°46.165 6.7 252 9.5 101750 35
2010-05-05 14:35 51°21.883 2°46.352 5.1 249 9.5 101750 37
2010-05-05 14:36 51°21.686 2°46.539 5.7 23 9.6 101750 35
2010-05-05 14:37 51°21.504 2°46.759 5.8 248 9.5 101740 37
2010-05-05 14:38 51°21.326 2°46.982 7.2 250 9.5 101740 35
2010-05-05 14:39 51°21.148 2°47.205 8.2 252 9.5 101730 37
2010-05-05 14:40 51°20.973 2°47.435 7.6 248 9.6 101730 35
2010-05-05 14:41 51°20.791 2°47.657 7.7 21 9.5 101730 36
2010-05-05 14:42 51°20.607 2°47.881 6.2 20 9.5 101740 37
2010-05-05 14:43 51°20.426 2°48.099 8 19 9.4 101720 36
2010-05-05 14:44 51°20.243 2°48.315 7 23 9.4 101730 37
2010-05-05 14:45 51°20.058 2°48.533 7.1 249 9.5 101730 37
2010-05-05 14:46 51°19.873 2°48.754 7.8 249 9.5 101720 37
2010-05-05 14:47 51°19.687 2°48.974 7.2 22 9.5 101710 36
2010-05-05 14:48 51°19.504 2°49.197 7.3 21 9.5 101700 35
2010-05-05 14:49 51°19.321 2°49.419 8.1 248 9.5 101710 35
2010-05-05 14:50 51°19.142 2°49.642 6.1 249 9.5 101710 35
2010-05-05 14:51 51°18.961 2°49.866 6.4 247 9.5 101710 35
2010-05-05 14:52 51°18.777 2°50.088 7.4 20 9.6 101710 35
2010-05-05 14:53 51°18.599 2°50.316 6.8 251 9.5 101710 35
2010-05-05 14:54 51°18.416 2°50.536 7.2 251 9.5 101700 36
2010-05-05 14:55 51°18.229 2°50.747 7.7 250 9.5 101700 36
2010-05-05 14:56 51°18.051 2°50.979 9.1 247 9.6 101690 35
2010-05-05 14:57 51°17.887 2°51.223 7.6 248 9.4 101690 36
2010-05-05 14:58 51°17.715 2°51.469 8.5 249 9.4 101690 35
2010-05-05 14:59 51°17.548 2°51.719 9.4 20 9.5 101680 36
2010-05-05 15:00 51°17.392 2°51.987 8.7 21 9.4 101680 35
2010-05-05 15:01 51°17.211 2°52.207 7.5 253 9.4 101680 37
2010-05-05 15:02 51°17.011 2°52.388 7 255 9.4 101680 35
2010-05-05 15:03 51°16.802 2°52.561 6.7 257 9.5 101670 37
2010-05-05 15:04 51°16.601 2°52.745 7.4 256 9.5 101680 35
2010-05-05 15:05 51°16.395 2°52.912 8 257 9.5 101670 35
2010-05-05 15:06 51°16.196 2°53.089 7.7 255 9.5 101670 35
2010-05-05 15:07 51°15.997 2°53.27 7.6 251 9.5 101670 36
2010-05-05 15:08 51°15.799 2°53.453 8.1 257 9.6 101670 36
2010-05-05 15:09 51°15.602 2°53.639 6.9 253 9.6 101660 36
2010-05-05 15:10 51°15.421 2°53.854 6.3 21 9.7 101670 35
2010-05-05 15:11 51°15.249 2°54.089 8.3 255 9.7 101660 35
2010-05-05 15:12 51°15.067 2°54.301 7 23 9.6 101670 34
2010-05-05 15:13 51°14.878 2°54.513 8.5 252 9.7 101660 37
2010-05-05 15:14 51°14.705 2°54.734 9.5 249 9.6 101670 36
2010-05-05 15:15 51°14.534 2°54.966 6.9 21 9.6 101660 35
2010-05-05 15:16 51°14.355 2°55.175 7.2 249 9.6 101670 35
2010-05-05 15:17 51°14.214 2°55.334 7.3 259 9.7 101670 37
2010-05-05 15:18 51°14.115 2°55.427 5.2 270 9.7 101690 35
2010-05-05 15:19 51°14.01 2°55.495 5.1 26 9.6 101690 37
2010-05-05 15:20 51°13.901 2°55.568 4.6 263 9.6 101680 34
2010-05-05 15:21 51°13.811 2°55.637 4.3 31 9.6 101690 36
2010-05-05 15:22 51°13.742 2°55.735 4.4 25 9.5 101670 35
2010-05-05 15:23 51°13.689 2°55.848 6.9 255 9.6 101680 35
2010-05-05 15:24 51°13.663 2°55.944 6.6 255 9.8 101670 36